When you browse on this site, cookies collect data to enhance your experience and personalize the content and advertising you see.
Visit our Privacy Policy to learn more. By continuing to use the site, you agree to this use of cookies and data.
  • In Lithuania
  • List of Countries
  • For 7 days
  • Water Temperature
  • Satellite Maps
  • Weather Map
  • Weather Widgets
  • user-avatar
    Login

    Hourly Weather Myszkowice

    Today, 17 November, Saturday

    Time Temperature Precipitation Wind Pressure Humidity
    00:00 0°C° 0 mm 3 mps 752 mmHg 89%
    01:00 -1°C° 0 mm 3 mps 752 mmHg 90%
    02:00 -1°C° 0 mm 3 mps 752 mmHg 90%
    03:00 -1°C° 0 mm 3 mps 752 mmHg 90%
    04:00 -2°C° 0 mm 2 mps 752 mmHg 91%
    05:00 -2°C° 0 mm 2 mps 752 mmHg 90%
    06:00 -2°C° 0 mm 2 mps 752 mmHg 88%
    07:00 -2°C° 0 mm 2 mps 752 mmHg 87%
    08:00 -1°C° 0 mm 3 mps 752 mmHg 77%
    09:00 0°C° 0 mm 3 mps 752 mmHg 67%
    10:00 +1°C° 0 mm 3 mps 752 mmHg 57%
    11:00 +1°C° 0 mm 4 mps 752 mmHg 53%
    12:00 +3°C° 0 mm 4 mps 752 mmHg 49%
    13:00 +3°C° 0 mm 4 mps 751 mmHg 45%
    14:00 +1°C° 0 mm 4 mps 751 mmHg 48%
    15:00 +1°C° 0 mm 3 mps 751 mmHg 50%
    16:00 +1°C° 0 mm 3 mps 751 mmHg 52%
    17:00 0°C° 0 mm 3 mps 751 mmHg 53%
    18:00 0°C° 0 mm 3 mps 751 mmHg 54%
    19:00 -1°C° 0 mm 3 mps 751 mmHg 54%
    20:00 -1°C° 0 mm 2 mps 751 mmHg 56%
    21:00 -1°C° 0 mm 2 mps 751 mmHg 57%
    22:00 -2°C° 0 mm 2 mps 751 mmHg 58%
    23:00 -2°C° 0 mm 2 mps 750 mmHg 59%

    Tomorrow, 18 November, Sunday

    Time Temperature Precipitation Wind Pressure Humidity
    00:00 -2°C° 0 mm 2 mps 750 mmHg 61%
    01:00 0°C° 0 mm 1 mps 750 mmHg 62%
    02:00 0°C° 0 mm 1 mps 750 mmHg 63%
    03:00 0°C° 0 mm 1 mps 749 mmHg 64%
    04:00 0°C° 0 mm 1 mps 749 mmHg 65%
    05:00 -1°C° 0 mm 1 mps 749 mmHg 66%
    06:00 -1°C° 0 mm 1 mps 748 mmHg 67%
    07:00 -1°C° 0 mm 1 mps 748 mmHg 68%
    08:00 0°C° 0 mm 1 mps 748 mmHg 64%
    09:00 -1°C° 0 mm 2 mps 748 mmHg 60%
    10:00 +2°C° 0 mm 2 mps 748 mmHg 56%
    11:00 +2°C° 0 mm 2 mps 747 mmHg 53%
    12:00 +3°C° 0 mm 2 mps 747 mmHg 51%
    13:00 +4°C° 0 mm 2 mps 746 mmHg 48%
    14:00 +3°C° 0 mm 2 mps 746 mmHg 50%
    15:00 +2°C° 0 mm 2 mps 745 mmHg 51%
    16:00 +1°C° 0 mm 2 mps 744 mmHg 53%
    17:00 +1°C° 0 mm 2 mps 744 mmHg 57%
    18:00 -1°C° 0 mm 2 mps 744 mmHg 61%
    19:00 -1°C° 0 mm 2 mps 743 mmHg 66%
    20:00 -1°C° 0 mm 2 mps 743 mmHg 73%
    21:00 -1°C° 0 mm 2 mps 743 mmHg 80%
    22:00 +1°C° 0 mm 2 mps 743 mmHg 87%
    23:00 +1°C° 0.1 mm 2 mps 742 mmHg 89%

    Day after tomorrow, 19 November, Monday

    Time Temperature Precipitation Wind Pressure Humidity
    00:00 +1°C° 0.1 mm 2 mps 742 mmHg 90%
    01:00 0°C° 0.1 mm 3 mps 742 mmHg 92%
    02:00 0°C° 0.1 mm 3 mps 741 mmHg 92%
    03:00 0°C° 0.1 mm 3 mps 741 mmHg 93%
    04:00 0°C° 0.1 mm 3 mps 741 mmHg 93%
    05:00 0°C° 0.1 mm 3 mps 740 mmHg 93%
    06:00 0°C° 0.1 mm 3 mps 740 mmHg 93%
    07:00 0°C° 0.1 mm 3 mps 740 mmHg 94%
    08:00 +1°C° 0.2 mm 3 mps 740 mmHg 92%
    09:00 0°C° 0.2 mm 4 mps 740 mmHg 90%
    10:00 +1°C° 0.2 mm 4 mps 740 mmHg 88%
    11:00 +1°C° 0.2 mm 4 mps 739 mmHg 86%
    12:00 +1°C° 0.2 mm 4 mps 739 mmHg 84%
    13:00 +1°C° 0.2 mm 4 mps 739 mmHg 82%
    14:00 +1°C° 0.3 mm 4 mps 739 mmHg 83%
    15:00 0°C° 0.3 mm 4 mps 738 mmHg 84%
    16:00 0°C° 0.3 mm 4 mps 738 mmHg 85%
    17:00 0°C° 0.1 mm 4 mps 738 mmHg 85%
    18:00 -1°C° 0.1 mm 4 mps 738 mmHg 85%
    19:00 -1°C° 0.1 mm 4 mps 738 mmHg 86%
    20:00 -1°C° 0.1 mm 4 mps 738 mmHg 86%
    21:00 -1°C° 0.1 mm 4 mps 739 mmHg 86%
    22:00 -1°C° 0.1 mm 4 mps 739 mmHg 87%
    23:00 -2°C° 0 mm 4 mps 739 mmHg 87%

    20 November, Tuesday

    Time Temperature Precipitation Wind Pressure Humidity
    00:00 -2°C° 0 mm 4 mps 739 mmHg 87%
    01:00 -3°C° 0 mm 4 mps 738 mmHg 87%
    02:00 -3°C° 0 mm 4 mps 738 mmHg 87%
    03:00 -3°C° 0 mm 4 mps 738 mmHg 86%
    04:00 -3°C° 0 mm 4 mps 738 mmHg 86%
    05:00 -3°C° 0 mm 4 mps 738 mmHg 86%
    06:00 -3°C° 0 mm 4 mps 738 mmHg 86%
    07:00 -3°C° 0 mm 4 mps 738 mmHg 86%
    08:00 -3°C° 0 mm 4 mps 737 mmHg 84%
    09:00 -2°C° 0 mm 5 mps 737 mmHg 83%
    10:00 -2°C° 0 mm 5 mps 737 mmHg 81%
    11:00 -1°C° 0 mm 5 mps 736 mmHg 80%
    12:00 -2°C° 0 mm 6 mps 736 mmHg 79%
    13:00 -2°C° 0 mm 6 mps 735 mmHg 78%
    14:00 -2°C° 0 mm 6 mps 735 mmHg 79%
    15:00 -2°C° 0 mm 6 mps 734 mmHg 80%
    16:00 -2°C° 0 mm 6 mps 734 mmHg 81%
    17:00 -3°C° 0.1 mm 6 mps 733 mmHg 82%
    18:00 -3°C° 0.1 mm 7 mps 733 mmHg 82%
    19:00 -3°C° 0.1 mm 7 mps 732 mmHg 83%
    20:00 -3°C° 0.2 mm 6 mps 732 mmHg 84%
    21:00 -3°C° 0.2 mm 6 mps 731 mmHg 84%
    22:00 -3°C° 0.2 mm 6 mps 731 mmHg 85%
    23:00 -3°C° 0.4 mm 6 mps 731 mmHg 86%

    21 November, Wednesday

    Time Temperature Precipitation Wind Pressure Humidity
    00:00 -2°C° 0.4 mm 6 mps 730 mmHg 88%
    01:00 -1°C° 0.4 mm 5 mps 730 mmHg 89%
    02:00 -1°C° 0.6 mm 5 mps 730 mmHg 90%
    03:00 -2°C° 0.6 mm 5 mps 730 mmHg 91%
    04:00 -2°C° 0.6 mm 5 mps 729 mmHg 92%
    05:00 -2°C° 0.3 mm 5 mps 730 mmHg 93%
    06:00 -2°C° 0.3 mm 4 mps 730 mmHg 93%
    07:00 -2°C° 0.3 mm 4 mps 730 mmHg 94%
    08:00 0°C° 0.2 mm 3 mps 730 mmHg 94%
    09:00 0°C° 0.2 mm 3 mps 731 mmHg 94%
    10:00 +1°C° 0.2 mm 2 mps 731 mmHg 95%
    11:00 +1°C° 0 mm 2 mps 732 mmHg 95%
    12:00 +2°C° 0 mm 2 mps 732 mmHg 95%
    13:00 +2°C° 0 mm 2 mps 733 mmHg 95%
    14:00 +2°C° 0 mm 2 mps 733 mmHg 95%
    15:00 +3°C° 0 mm 1 mps 734 mmHg 96%
    16:00 +2°C° 0 mm 1 mps 734 mmHg 97%
    17:00 +2°C° 0 mm 1 mps 734 mmHg 97%
    18:00 +2°C° 0 mm 1 mps 735 mmHg 97%
    19:00 +2°C° 0 mm 1 mps 735 mmHg 97%
    20:00 +2°C° 0 mm 1 mps 736 mmHg 97%
    21:00 +2°C° 0 mm 1 mps 736 mmHg 97%
    22:00 +2°C° 0 mm 1 mps 737 mmHg 96%
    23:00 +2°C° 0 mm 1 mps 737 mmHg 96%

    22 November, Thursday

    Time Temperature Precipitation Wind Pressure Humidity
    00:00 +1°C° 0 mm 1 mps 737 mmHg 96%
    01:00 -1°C° 0 mm 2 mps 737 mmHg 96%
    02:00 -1°C° 0 mm 2 mps 737 mmHg 96%
    03:00 +1°C° 0 mm 2 mps 737 mmHg 96%
    04:00 +1°C° 0 mm 2 mps 737 mmHg 96%
    05:00 0°C° 0.1 mm 3 mps 737 mmHg 96%
    06:00 0°C° 0.1 mm 3 mps 737 mmHg 96%
    07:00 0°C° 0.1 mm 3 mps 738 mmHg 96%
    08:00 +1°C° 0.4 mm 3 mps 738 mmHg 95%
    09:00 +1°C° 0.4 mm 3 mps 738 mmHg 95%
    10:00 +2°C° 0.4 mm 3 mps 738 mmHg 95%
    11:00 +2°C° 0.1 mm 3 mps 738 mmHg 94%
    12:00 +2°C° 0.1 mm 3 mps 738 mmHg 94%
    13:00 +4°C° 0.1 mm 2 mps 738 mmHg 94%
    14:00 +4°C° 0 mm 2 mps 738 mmHg 94%
    15:00 +3°C° 0 mm 2 mps 739 mmHg 94%
    16:00 +3°C° 0 mm 2 mps 739 mmHg 94%
    17:00 +3°C° 0 mm 2 mps 739 mmHg 94%
    18:00 +3°C° 0 mm 2 mps 740 mmHg 94%
    19:00 +3°C° 0 mm 2 mps 740 mmHg 94%
    20:00 +3°C° 0 mm 2 mps 740 mmHg 94%
    21:00 +4°C° 0 mm 1 mps 741 mmHg 94%
    22:00 +4°C° 0 mm 1 mps 741 mmHg 94%
    23:00 +4°C° 0 mm 1 mps 741 mmHg 94%
    Show more